Cotulla, TX

5:10 AM CST on November 17, 2019 (GMT -0600)
Cotulla-La Salle County

Weather History for KCOT - August, 2019

Change the Weather History Date:

Monday, August 26, 2019

  Actual Average Record
Temperature  
Mean Temperature 92 °F -  
Max Temperature 107 °F 94 °F 106 °F (2006)
Min Temperature 78 °F 73 °F 71 °F (1997)
Cooling Degree Days 27    
Growing Degree Days 42 (Base 50)    
Moisture  
Dew Point 70 °F    
Average Humidity 55    
Maximum Humidity 87    
Minimum Humidity 26    
Precipitation  
Precipitation 0.00 in - - ()
Sea Level Pressure  
Sea Level Pressure 29.73 in    
Wind  
Wind Speed 8 mph ()    
Max Wind Speed 20 mph    
Max Gust Speed 22 mph    
Visibility 10.0 miles    
Events      
Averages and records for this station are not official NWS values.
T = Trace of Precipitation, MM = Missing Value Source: Averaged Metar Reports

Daily Weather History Graph

Daily Weather History Graph

Search for Another Location

Airport or City:

Astronomy

Aug. 26, 2019 Rise Set
Actual Time 7:12 AM CDT 8:04 PM CDT
Civil Twilight 6:47 AM CDT 8:29 PM CDT
Nautical Twilight 6:19 AM CDT 8:57 PM CDT
Astronomical Twilight 5:49 AM CDT 9:26 PM CDT
Moon 2:55 AM CDT (8/26) 5:12 PM CDT (8/26)
Length of Visible Light 13h 41m
Length of Day
12h 52m
Waning Crescent, 19% of the Moon is Illuminated
Aug 26
Waning Crescent
Aug 30
New
Sep 5
First Quarter
Sep 13
Full
Sep 21
Last Quarter

Hourly Weather History & Observations

Time (CDT) Temp. Heat Index Dew Point Humidity Pressure Visibility Wind Dir Wind Speed Gust Speed Precip Events Conditions
12:53 AM 84.0 °F 89.0 °F 71.1 °F 65% 29.76 in 10.0 mi SSE 9.2 mph - N/A   Clear
1:53 AM 82.0 °F 86.3 °F 71.1 °F 69% 29.76 in 10.0 mi SSE 4.6 mph - N/A   Clear
2:53 AM 81.0 °F 84.9 °F 71.1 °F 72% 29.75 in 10.0 mi SE 5.8 mph - N/A   Clear
3:53 AM 80.1 °F 83.8 °F 72.0 °F 76% 29.74 in 10.0 mi SE 8.1 mph - N/A   Clear
4:53 AM 80.1 °F 84.2 °F 73.0 °F 79% 29.74 in 10.0 mi SE 8.1 mph - N/A   Clear
5:53 AM 78.1 °F - 73.0 °F 84% 29.74 in 10.0 mi SE 8.1 mph - N/A   Clear
6:53 AM 78.1 °F - 73.0 °F 84% 29.74 in 10.0 mi ESE 8.1 mph - N/A   Clear
7:53 AM 78.1 °F - 73.9 °F 87% 29.76 in 10.0 mi SE 9.2 mph - N/A   Clear
8:53 AM 82.0 °F 87.9 °F 73.9 °F 76% 29.77 in 10.0 mi SSE 10.4 mph - N/A   Clear
9:53 AM 87.1 °F 95.4 °F 73.9 °F 65% 29.78 in 10.0 mi SE 12.7 mph - N/A   Clear
10:53 AM 91.0 °F 100.4 °F 73.9 °F 57% 29.79 in 10.0 mi SSE 13.8 mph 21.9 mph N/A   Clear
11:53 AM 96.1 °F 104.9 °F 72.0 °F 46% 29.78 in 10.0 mi SSE 13.8 mph 18.4 mph N/A   Clear
12:53 PM 99.0 °F 106.2 °F 70.0 °F 39% 29.75 in 10.0 mi SSE 8.1 mph - N/A   Clear
1:53 PM 100.9 °F 108.2 °F 69.1 °F 36% 29.73 in 10.0 mi SSE 10.4 mph 17.3 mph N/A   Partly Cloudy
2:53 PM 104.0 °F 109.6 °F 66.9 °F 30% 29.70 in 10.0 mi South 9.2 mph 19.6 mph N/A   Clear
3:53 PM 102.9 °F 106.8 °F 64.9 °F 29% 29.67 in 10.0 mi SE 9.2 mph - N/A   Clear
4:53 PM 106.0 °F 110.1 °F 64.0 °F 26% 29.65 in 10.0 mi SSE 8.1 mph - N/A   Clear
5:53 PM 105.1 °F 108.5 °F 64.0 °F 26% 29.64 in 10.0 mi SSE 10.4 mph - N/A   Clear
6:53 PM 104.0 °F 107.4 °F 64.0 °F 27% 29.64 in 10.0 mi SSE 11.5 mph - N/A   Clear
7:53 PM 102.0 °F 105.9 °F 64.9 °F 30% 29.65 in 10.0 mi SSE 6.9 mph - N/A   Clear
8:53 PM 99.0 °F 103.5 °F 66.9 °F 35% 29.67 in 10.0 mi SE 12.7 mph - N/A   Partly Cloudy
9:53 PM 93.9 °F 104.0 °F 73.9 °F 52% 29.70 in 10.0 mi SE 19.6 mph - N/A   Clear
10:53 PM 91.0 °F 101.6 °F 75.0 °F 59% 29.74 in 10.0 mi SSE 16.1 mph 21.9 mph N/A   Clear
11:53 PM 90.0 °F 99.0 °F 73.9 °F 59% 29.76 in 10.0 mi SSE 13.8 mph - N/A   Clear